Regional Weather Roundup
Issued by NWS

Home | Current Version | Previous Version | Text Only | Print | Product List | Glossary Off
Versions: 1 2 3 4 5 6 7 8 9 10 11 12 13 14 15 16 17 18 19 20 21 22 23 24 25 26 27 28 29 30 31 32 33 34 35 36 37 38 39 40 41 42 43 44 45 46 47 48 49 50

000
ASUS43 KOAX 190810
RWRNE

WEATHER ROUNDUP FOR NEBRASKA
NATIONAL WEATHER SERVICE OMAHA NE
300 AM CDT THU APR 19 2018

NOTES: SATELLITE DATA IS BEING USED TO AUGMENT CLOUD COVER ABOVE
       12000 FEET.
       "FAIR" INDICATES FEW OR NO CLOUDS BELOW 12,000 FEET WITH NO
       SIGNIFICANT WEATHER AND/OR OBSTRUCTIONS TO VISIBILITY.


NEZ001>004-019>022-054>056-190900-
NEBRASKA PANHANDLE

CITY           SKY/WX    TMP DP  RH WIND       PRES   REMARKS
SCOTTSBLUFF    CLEAR     31  26  82 E9        30.29S WCI  23
ALLIANCE       CLEAR     30  28  92 SE3       30.29F
CHADRON        PTCLDY    30  27  88 CALM      30.30R
GORDON         PTSUNNY   28  27  94 CALM      30.29S
KIMBALL        CLEAR     29  20  69 SE7       30.30R WCI  22
SIDNEY         CLEAR     28  25  88 S7        30.30S WCI  21
$$

NEZ057>060-069>072-079>082-190900-
SOUTHWEST NEBRASKA

CITY           SKY/WX    TMP DP  RH WIND       PRES   REMARKS
NORTH PLATTE   CLEAR     29  25  85 W5        30.34R WCI  24
IMPERIAL       CLEAR     30  27  88 SW3       30.33R
LEXINGTON      CLEAR     29  26  90 CALM      30.32S
MCCOOK         CLEAR     30  27  88 W5        30.33R WCI  25
OGALLALA       CLEAR     28  26  94 W3        30.32R
$$

NEZ005>010-023>029-035>040-094-190900-
NORTH CENTRAL NEBRASKA

CITY           SKY/WX    TMP DP  RH WIND       PRES   REMARKS
VALENTINE      CLEAR     29  27  92 CALM      30.33S
AINSWORTH      CLEAR     29  29 100 NW5       30.33S WCI  24
BROKEN BOW     CLEAR     29  26  89 N5        30.32S WCI  24
O`NEILL        CLEAR     32  31  96 NW6       30.33R WCI  26
ORD            CLEAR     28  27  96 N8        30.33R WCI  20
THEDFORD       CLEAR     28  28  96 CALM      30.33F
$$

NEZ041-046>049-061>064-073>077-083>087-190900-
SOUTH CENTRAL NEBRASKA

CITY           SKY/WX    TMP DP  RH WIND       PRES   REMARKS
GRAND ISLAND   CLEAR     32  29  88 N8        30.32S WCI  25
AURORA         CLEAR     31  30  96 NW9       30.32R WCI  23
HASTINGS       CLEAR     31  29  92 NW9       30.32R WCI  23
HEBRON         CLEAR     33  30  88 NW8       30.32R WCI  26
HOLDREGE       CLEAR     31  29  93 N7        30.32R WCI  24
KEARNEY        CLEAR     31  28  89 NW7       30.33S WCI  24
YORK             N/A     32  32 100 N5        30.31S WCI  27
$$

NEZ011>018-030>034-042>045-190900-
NORTHEAST NEBRASKA

CITY           SKY/WX    TMP DP  RH WIND       PRES   REMARKS
NORFOLK        CLEAR     30  29  96 W5        30.30S WCI  25
ALBION         CLEAR     31  29  96 N6        30.31F WCI  25
BLAIR          CLEAR     32  30  90 N7        30.28S WCI  26
COLUMBUS       CLEAR     30  27  88 NW8       30.32R WCI  22
FREMONT        MOCLDY    32  32  99 NW5       30.31R WCI  28
TEKAMAH        CLOUDY    33  30  88 NW5       30.31R WCI  29
WAYNE          CLEAR     32  31  96 NW6       30.30S WCI  26
$$

NEZ050>053-065>068-078-088>093-190900-
SOUTHEAST NEBRASKA

CITY           SKY/WX    TMP DP  RH WIND       PRES   REMARKS
LINCOLN        CLEAR     30  27  88 N10       30.32R WCI  21
OMAHA EPPLEY   CLEAR     30  28  92 N7        30.30R WCI  23
BEATRICE       CLEAR     37  32  82 N10       30.31R WCI  29
FALLS CITY     CLOUDY    37  27  67 N15G23    30.28R WCI  28
NEBRASKA CITY  CLEAR     32  31  96 N7        30.29R WCI  26
PLATTSMOUTH    PTCLDY    32  28  88 NW7       30.30R WCI  25
$$

NEZ044-045-051>053-067-190900-
OMAHA AREA

CITY           SKY/WX    TMP DP  RH WIND       PRES   REMARKS
OMAHA EPPLEY   CLEAR     30  28  92 N7        30.30R WCI  23
BLAIR          CLEAR     32  30  90 N7        30.28S WCI  26
FREMONT        MOCLDY    32  32  99 NW5       30.31R WCI  28
MILLARD        CLEAR     35  31  85 N3        30.30S
OFFUTT AFB     CLEAR     33  29  86 N6        30.29R WCI  27
PLATTSMOUTH    PTCLDY    32  28  88 NW7       30.30R WCI  25
WAHOO          FAIR      32  29  90 NW6       30.31R WCI  26
$$




USA.gov is the U.S. government's official web portal to all federal, state and local government web resources and services.